| time (UTC) | temp F | wind direction | speed MPH | gust MPH | rain 1hr in | rain 24hr in | rain mn in | humidity % | barometer mb |
| 20260507003606 | 57 | 163 | 0.0 | 4.0 | 0.00 | 0.00 | 0.00 | 83 | 1020.0 |
| 20260507003101 | 58 | 161 | 0.0 | 3.0 | 0.00 | 0.00 | 0.00 | 83 | 1019.9 |
| 20260507002339 | 58 | 161 | 0.0 | 5.0 | 0.00 | 0.00 | 0.00 | 83 | 1020.0 |
| 20260507001837 | 58 | 74 | 0.0 | 3.0 | 0.00 | 0.00 | 0.00 | 83 | 1019.9 |
| 20260507001337 | 58 | 38 | 0.0 | 3.0 | 0.00 | 0.00 | 0.00 | 83 | 1019.9 |
| 20260507000840 | 58 | 15 | 0.0 | 0.0 | 0.00 | 0.00 | 0.00 | 83 | 1019.9 |
| 20260507000346 | 58 | 11 | 1.0 | 7.0 | 0.00 | 0.00 | 0.00 | 82 | 1020.0 |
| 20260506235836 | 58 | 34 | 0.0 | 4.0 | 0.00 | 0.00 | 0.00 | 82 | 1019.9 |
| 20260506235317 | 58 | 60 | 0.0 | 0.0 | 0.00 | 0.00 | 0.00 | 83 | 1019.9 |
| 20260506234824 | 58 | 52 | 0.0 | 4.0 | 0.00 | 0.00 | 0.00 | 82 | 1019.9 |
| 20260506234319 | 58 | 124 | 1.0 | 6.0 | 0.00 | 0.00 | 0.00 | 82 | 1019.9 |
| 20260506233811 | 58 | 126 | 1.0 | 6.0 | 0.00 | 0.00 | 0.00 | 82 | 1019.8 |
| 20260506233256 | 58 | 104 | 0.0 | 6.0 | 0.00 | 0.00 | 0.00 | 82 | 1019.8 |
| 20260506232743 | 59 | 109 | 0.0 | 6.0 | 0.00 | 0.00 | 0.00 | 82 | 1019.8 |
| 20260506232251 | 59 | 69 | 0.0 | 5.0 | 0.00 | 0.00 | 0.00 | 81 | 1019.8 |
| 20260506231743 | 59 | 67 | 0.0 | 5.0 | 0.00 | 0.00 | 0.00 | 81 | 1019.8 |
| 20260506231244 | 59 | 106 | 0.0 | 5.0 | 0.00 | 0.00 | 0.00 | 81 | 1019.9 |
| 20260506230748 | 59 | 106 | 0.0 | 3.0 | 0.00 | 0.00 | 0.00 | 80 | 1019.9 |
| 20260506230256 | 60 | 107 | 0.0 | 7.0 | 0.00 | 0.00 | 0.00 | 80 | 1019.8 |
| 20260506225754 | 60 | 82 | 1.0 | 7.0 | 0.00 | 0.00 | 0.00 | 79 | 1019.9 |
| 20260506225024 | 60 | 139 | 1.0 | 7.0 | 0.00 | 0.00 | 0.00 | 79 | 1019.9 |
| 20260506224509 | 61 | 59 | 0.0 | 5.0 | 0.00 | 0.00 | 0.00 | 78 | 1019.9 |
| 20260506224017 | 62 | 25 | 0.0 | 2.0 | 0.00 | 0.00 | 0.00 | 78 | 1019.9 |
| 20260506223457 | 62 | 98 | 0.0 | 4.0 | 0.00 | 0.00 | 0.00 | 77 | 1020.0 |
| 20260506223000 | 62 | 98 | 0.0 | 4.0 | 0.00 | 0.00 | 0.00 | 77 | 1020.0 |
| 20260506222459 | 62 | 288 | 1.0 | 6.0 | 0.00 | 0.00 | 0.00 | 77 | 1020.0 |
| 20260506221939 | 63 | 311 | 1.0 | 6.0 | 0.00 | 0.00 | 0.00 | 75 | 1020.0 |
| 20260506221425 | 64 | 319 | 0.0 | 7.0 | 0.00 | 0.00 | 0.00 | 75 | 1020.0 |
| 20260506220931 | 64 | 325 | 1.0 | 7.0 | 0.00 | 0.00 | 0.00 | 75 | 1020.0 |
| 20260506220152 | 64 | 19 | 1.0 | 7.0 | 0.00 | 0.00 | 0.00 | 75 | 1020.0 |
| 20260506215655 | 64 | 226 | 1.0 | 5.0 | 0.00 | 0.00 | 0.00 | 75 | 1019.9 |
| 20260506215137 | 64 | 200 | 1.0 | 5.0 | 0.00 | 0.00 | 0.00 | 75 | 1020.0 |
| 20260506214628 | 64 | 240 | 1.0 | 8.0 | 0.00 | 0.00 | 0.00 | 75 | 1020.0 |
| 20260506214110 | 63 | 234 | 1.0 | 8.0 | 0.00 | 0.00 | 0.00 | 75 | 1019.9 |
| 20260506213604 | 63 | 11 | 1.0 | 8.0 | 0.00 | 0.00 | 0.00 | 74 | 1020.0 |
| 20260506213050 | 63 | 5 | 1.0 | 8.0 | 0.00 | 0.00 | 0.00 | 77 | 1020.0 |
| 20260506212549 | 63 | 247 | 1.0 | 7.0 | 0.00 | 0.00 | 0.00 | 76 | 1020.0 |
| 20260506212050 | 63 | 293 | 1.0 | 8.0 | 0.00 | 0.00 | 0.00 | 75 | 1020.0 |
| 20260506211538 | 62 | 284 | 1.0 | 8.0 | 0.00 | 0.00 | 0.00 | 77 | 1020.0 |
| 20260506211036 | 62 | 279 | 1.0 | 7.0 | 0.00 | 0.00 | 0.00 | 75 | 1020.0 |
| 20260506210526 | 63 | 263 | 1.0 | 7.0 | 0.00 | 0.00 | 0.00 | 75 | 1020.0 |
| 20260506210029 | 63 | 258 | 0.0 | 6.0 | 0.00 | 0.00 | 0.00 | 73 | 1020.0 |
| 20260506205517 | 63 | 255 | 1.0 | 1.0 | 0.00 | 0.00 | 0.00 | 76 | 1019.9 |
| 20260506204735 | 63 | 269 | 1.0 | 6.0 | 0.00 | 0.00 | 0.00 | 75 | 1019.9 |
| 20260506204220 | 62 | 266 | 0.0 | 7.0 | 0.00 | 0.00 | 0.00 | 74 | 1019.8 |
| 20260506203727 | 62 | 258 | 1.0 | 7.0 | 0.00 | 0.00 | 0.00 | 75 | 1020.0 |
| 20260506202948 | 61 | 249 | 1.0 | 7.0 | 0.00 | 0.00 | 0.00 | 78 | 1020.0 |
| 20260506202449 | 61 | 242 | 2.0 | 7.0 | 0.00 | 0.00 | 0.00 | 78 | 1020.0 |
| 20260506201713 | 61 | 244 | 1.0 | 7.0 | 0.00 | 0.00 | 0.00 | 75 | 1020.0 |
| 20260506201212 | 62 | 244 | 0.0 | 3.0 | 0.00 | 0.00 | 0.00 | 77 | 1020.0 |
| 20260506200705 | 61 | 244 | 0.0 | 1.0 | 0.00 | 0.00 | 0.00 | 79 | 1020.1 |
| 20260506200157 | 60 | 244 | 0.0 | 4.0 | 0.00 | 0.00 | 0.00 | 78 | 1020.1 |
| 20260506195641 | 59 | 244 | 0.0 | 6.0 | 0.00 | 0.00 | 0.00 | 81 | 1020.1 |
| 20260506194902 | 59 | 246 | 2.0 | 6.0 | 0.00 | 0.00 | 0.00 | 82 | 1020.2 |
| 20260506194411 | 59 | 247 | 1.0 | 6.0 | 0.00 | 0.00 | 0.00 | 81 | 1020.2 |
| 20260506193626 | 59 | 271 | 0.0 | 3.0 | 0.00 | 0.00 | 0.00 | 82 | 1020.1 |
| 20260506193119 | 59 | 271 | 0.0 | 3.0 | 0.00 | 0.00 | 0.00 | 83 | 1020.1 |
| 20260506192352 | 58 | 271 | 0.0 | 2.0 | 0.00 | 0.00 | 0.00 | 84 | 1020.2 |
| 20260506191837 | 58 | 271 | 0.0 | 3.0 | 0.00 | 0.00 | 0.00 | 84 | 1020.0 |
| 20260506191324 | 58 | 271 | 0.0 | 3.0 | 0.00 | 0.00 | 0.00 | 85 | 1020.2 |
| 20260506190815 | 58 | 271 | 0.0 | 6.0 | 0.00 | 0.00 | 0.00 | 86 | 1020.2 |
| 20260506190315 | 57 | 271 | 1.0 | 6.0 | 0.00 | 0.00 | 0.00 | 88 | 1020.3 |
| 20260506185528 | 57 | 271 | 1.0 | 6.0 | 0.00 | 0.00 | 0.00 | 87 | 1020.3 |
| 20260506185013 | 57 | 287 | 0.0 | 4.0 | 0.00 | 0.00 | 0.00 | 87 | 1020.3 |
| 20260506184455 | 57 | 287 | 1.0 | 4.0 | 0.00 | 0.00 | 0.00 | 88 | 1020.3 |
| 20260506183935 | 56 | 289 | 0.0 | 6.0 | 0.00 | 0.00 | 0.00 | 89 | 1020.3 |
| 20260506183429 | 56 | 296 | 0.0 | 3.0 | 0.00 | 0.00 | 0.00 | 89 | 1020.2 |
| 20260506182709 | 56 | 296 | 0.0 | 1.0 | 0.00 | 0.00 | 0.00 | 89 | 1020.2 |
| 20260506182210 | 56 | 296 | 0.0 | 3.0 | 0.00 | 0.00 | 0.00 | 89 | 1020.2 |
| 20260506181436 | 56 | 296 | 0.0 | 3.0 | 0.00 | 0.00 | 0.00 | 89 | 1020.2 |
| 20260506180930 | 56 | 296 | 0.0 | 3.0 | 0.00 | 0.00 | 0.00 | 90 | 1020.2 |
| 20260506180144 | 56 | 296 | 0.0 | 3.0 | 0.00 | 0.00 | 0.00 | 89 | 1020.2 |
| 20260506175631 | 56 | 296 | 0.0 | 0.0 | 0.00 | 0.00 | 0.00 | 90 | 1020.2 |
| 20260506175115 | 56 | 296 | 0.0 | 1.0 | 0.00 | 0.00 | 0.00 | 90 | 1020.1 |
| 20260506174610 | 55 | 296 | 0.0 | 1.0 | 0.00 | 0.00 | 0.00 | 91 | 1020.0 |
| 20260506174112 | 55 | 296 | 0.0 | 4.0 | 0.00 | 0.00 | 0.00 | 91 | 1020.0 |
| 20260506173604 | 55 | 296 | 0.0 | 4.0 | 0.00 | 0.00 | 0.00 | 91 | 1019.8 |
| 20260506173046 | 55 | 306 | 0.0 | 2.0 | 0.00 | 0.00 | 0.00 | 91 | 1019.7 |
| 20260506172533 | 54 | 306 | 0.0 | 2.0 | 0.00 | 0.00 | 0.00 | 92 | 1019.8 |
| 20260506172040 | 54 | 306 | 1.0 | 2.0 | 0.00 | 0.00 | 0.00 | 91 | 1019.8 |
| 20260506171525 | 55 | 306 | 0.0 | 2.0 | 0.00 | 0.00 | 0.00 | 91 | 1019.8 |
| 20260506171007 | 55 | 306 | 0.0 | 2.0 | 0.00 | 0.00 | 0.00 | 91 | 1019.9 |
| 20260506170510 | 55 | 306 | 0.0 | 0.0 | 0.00 | 0.00 | 0.00 | 91 | 1019.6 |
| 20260506165744 | 55 | 306 | 0.0 | 1.0 | 0.00 | 0.00 | 0.00 | 91 | 1019.7 |
| 20260506165230 | 55 | 306 | 0.0 | 0.0 | 0.00 | 0.00 | 0.00 | 90 | 1019.7 |
| 20260506164732 | 55 | 306 | 0.0 | 0.0 | 0.00 | 0.00 | 0.00 | 90 | 1019.8 |
| 20260506163948 | 55 | 306 | 0.0 | 2.0 | 0.00 | 0.00 | 0.00 | 89 | 1019.7 |
| 20260506163442 | 55 | 306 | 0.0 | 1.0 | 0.00 | 0.00 | 0.00 | 89 | 1019.7 |
| 20260506162933 | 55 | 306 | 0.0 | 1.0 | 0.00 | 0.00 | 0.00 | 90 | 1019.7 |
| 20260506162422 | 55 | 306 | 0.0 | 1.0 | 0.00 | 0.00 | 0.00 | 90 | 1019.7 |
| 20260506161918 | 54 | 306 | 0.0 | 2.0 | 0.00 | 0.00 | 0.00 | 90 | 1019.6 |
| 20260506161425 | 54 | 306 | 0.0 | 2.0 | 0.00 | 0.00 | 0.00 | 91 | 1019.6 |
| 20260506160914 | 54 | 306 | 0.0 | 1.0 | 0.00 | 0.00 | 0.00 | 91 | 1019.7 |
| 20260506160421 | 54 | 306 | 0.0 | 1.0 | 0.00 | 0.00 | 0.00 | 91 | 1019.7 |
| 20260506155928 | 54 | 306 | 0.0 | 4.0 | 0.00 | 0.00 | 0.00 | 91 | 1019.7 |
| 20260506155426 | 54 | 306 | 0.0 | 2.0 | 0.00 | 0.00 | 0.00 | 91 | 1019.6 |
| 20260506154921 | 54 | 306 | 0.0 | 2.0 | 0.00 | 0.00 | 0.00 | 90 | 1019.6 |
| 20260506154147 | 54 | 307 | 0.0 | 4.0 | 0.00 | 0.00 | 0.00 | 91 | 1019.6 |
| 20260506153629 | 54 | 348 | 0.0 | 0.0 | 0.00 | 0.00 | 0.00 | 91 | 1019.6 |
| 20260506153118 | 54 | 349 | 0.0 | 3.0 | 0.00 | 0.00 | 0.00 | 91 | 1019.3 |
| 20260506152342 | 54 | 40 | 0.0 | 3.0 | 0.00 | 0.00 | 0.00 | 91 | 1019.2 |
| 20260506151836 | 54 | 40 | 0.0 | 3.0 | 0.00 | 0.00 | 0.00 | 92 | 1019.1 |
| 20260506151320 | 53 | 40 | 0.0 | 3.0 | 0.00 | 0.00 | 0.00 | 92 | 1018.6 |
| 20260506150555 | 53 | 40 | 0.0 | 3.0 | 0.00 | 0.00 | 0.00 | 92 | 1018.8 |
| 20260506150051 | 53 | 40 | 0.0 | 3.0 | 0.00 | 0.00 | 0.00 | 93 | 1018.8 |
| 20260506145558 | 53 | 40 | 0.0 | 1.0 | 0.00 | 0.00 | 0.00 | 94 | 1019.0 |
| 20260506145100 | 52 | 40 | 0.0 | 1.0 | 0.00 | 0.00 | 0.00 | 94 | 1019.1 |
| 20260506144554 | 52 | 40 | 0.0 | 0.0 | 0.00 | 0.00 | 0.00 | 95 | 1019.2 |
| 20260506143830 | 52 | 40 | 0.0 | 0.0 | 0.00 | 0.00 | 0.00 | 95 | 1019.4 |
| 20260506143050 | 52 | 40 | 0.0 | 1.0 | 0.00 | 0.00 | 0.00 | 95 | 1019.5 |
| 20260506142557 | 52 | 40 | 0.0 | 2.0 | 0.00 | 0.00 | 0.00 | 95 | 1019.5 |
| 20260506142051 | 52 | 40 | 0.0 | 3.0 | 0.00 | 0.00 | 0.00 | 95 | 1019.5 |
| 20260506141319 | 52 | 40 | 0.0 | 2.0 | 0.00 | 0.00 | 0.00 | 96 | 1019.4 |
| 20260506140821 | 52 | 40 | 0.0 | 0.0 | 0.00 | 0.00 | 0.00 | 96 | 1019.3 |
| 20260506140100 | 52 | 40 | 0.0 | 0.0 | 0.00 | 0.00 | 0.00 | 96 | 1019.4 |
| 20260506135552 | 52 | 40 | 0.0 | 0.0 | 0.00 | 0.00 | 0.00 | 96 | 1019.4 |
| 20260506135047 | 51 | 40 | 0.0 | 0.0 | 0.00 | 0.00 | 0.00 | 96 | 1019.0 |
| 20260506134300 | 51 | 40 | 0.0 | 1.0 | 0.00 | 0.00 | 0.00 | 96 | 1018.8 |
| 20260506133517 | 51 | 40 | 0.0 | 1.0 | 0.00 | 0.00 | 0.00 | 96 | 1018.7 |
| 20260506132744 | 51 | 40 | 0.0 | 0.0 | 0.00 | 0.00 | 0.00 | 96 | 1018.8 |
| 20260506132233 | 51 | 40 | 0.0 | 0.0 | 0.00 | 0.00 | 0.00 | 96 | 1018.8 |
| 20260506131714 | 51 | 40 | 0.0 | 1.0 | 0.00 | 0.00 | 0.00 | 96 | 1018.7 |
| 20260506130934 | 51 | 40 | 0.0 | 0.0 | 0.00 | 0.00 | 0.00 | 96 | 1018.6 |
| 20260506130429 | 51 | 40 | 0.0 | 1.0 | 0.00 | 0.00 | 0.00 | 96 | 1018.6 |
| 20260506125919 | 52 | 40 | 0.0 | 0.0 | 0.00 | 0.00 | 0.00 | 96 | 1018.5 |
| 20260506125425 | 52 | 40 | 0.0 | 1.0 | 0.00 | 0.00 | 0.00 | 96 | 1018.5 |
| 20260506124925 | 52 | 40 | 0.0 | 0.0 | 0.00 | 0.00 | 0.00 | 96 | 1018.5 |
| 20260506124415 | 52 | 40 | 0.0 | 1.0 | 0.00 | 0.00 | 0.00 | 96 | 1018.4 |
| 20260506123635 | 52 | 40 | 0.0 | 0.0 | 0.00 | 0.00 | 0.00 | 96 | 1018.3 |
| 20260506123144 | 52 | 40 | 0.0 | 0.0 | 0.00 | 0.00 | 0.00 | 96 | 1018.3 |
| 20260506122646 | 52 | 40 | 0.0 | 1.0 | 0.00 | 0.00 | 0.00 | 96 | 1018.2 |
| 20260506122148 | 52 | 40 | 0.0 | 0.0 | 0.00 | 0.00 | 0.00 | 96 | 1018.2 |
| 20260506121634 | 52 | 40 | 0.0 | 0.0 | 0.00 | 0.00 | 0.00 | 96 | 1018.2 |
| 20260506121137 | 52 | 40 | 0.0 | 0.0 | 0.00 | 0.00 | 0.00 | 96 | 1018.1 |
| 20260506120617 | 52 | 40 | 0.0 | 0.0 | 0.00 | 0.00 | 0.00 | 96 | 1018.1 |
| 20260506120057 | 52 | 40 | 0.0 | 2.0 | 0.00 | 0.00 | 0.00 | 96 | 1018.1 |
| 20260506115600 | 52 | 40 | 0.0 | 2.0 | 0.00 | 0.00 | 0.00 | 96 | 1018.1 |
| 20260506115104 | 52 | 40 | 0.0 | 2.0 | 0.00 | 0.00 | 0.00 | 96 | 1018.1 |
| 20260506114613 | 52 | 40 | 0.0 | 0.0 | 0.00 | 0.00 | 0.00 | 96 | 1018.2 |
| 20260506114115 | 52 | 40 | 0.0 | 1.0 | 0.00 | 0.00 | 0.00 | 96 | 1018.1 |
| 20260506113606 | 52 | 40 | 0.0 | 0.0 | 0.00 | 0.00 | 0.00 | 96 | 1018.1 |
| 20260506113111 | 52 | 40 | 0.0 | 0.0 | 0.00 | 0.00 | 0.00 | 96 | 1018.1 |
| 20260506112604 | 52 | 40 | 0.0 | 0.0 | 0.00 | 0.00 | 0.00 | 96 | 1018.0 |
| 20260506112102 | 52 | 40 | 0.0 | 1.0 | 0.00 | 0.00 | 0.00 | 95 | 1017.9 |
| 20260506111552 | 52 | 40 | 0.0 | 0.0 | 0.00 | 0.00 | 0.00 | 95 | 1017.9 |
| 20260506110814 | 52 | 40 | 0.0 | 2.0 | 0.00 | 0.00 | 0.00 | 95 | 1017.9 |
| 20260506110320 | 52 | 40 | 0.0 | 0.0 | 0.00 | 0.00 | 0.00 | 95 | 1017.8 |
| 20260506105818 | 52 | 40 | 0.0 | 0.0 | 0.00 | 0.00 | 0.00 | 95 | 1017.8 |
| 20260506105324 | 52 | 40 | 0.0 | 0.0 | 0.00 | 0.00 | 0.00 | 95 | 1017.7 |
| 20260506104832 | 52 | 40 | 0.0 | 0.0 | 0.00 | 0.00 | 0.00 | 95 | 1017.7 |
| 20260506104319 | 53 | 40 | 0.0 | 2.0 | 0.00 | 0.00 | 0.00 | 95 | 1017.6 |
| 20260506103801 | 53 | 40 | 0.0 | 0.0 | 0.00 | 0.00 | 0.00 | 95 | 1017.6 |
| 20260506103249 | 53 | 40 | 0.0 | 2.0 | 0.00 | 0.00 | 0.00 | 95 | 1017.6 |
| 20260506102744 | 53 | 40 | 0.0 | 0.0 | 0.00 | 0.00 | 0.00 | 95 | 1017.6 |
| 20260506102249 | 53 | 40 | 0.0 | 0.0 | 0.00 | 0.00 | 0.00 | 95 | 1017.5 |
| 20260506101745 | 53 | 40 | 0.0 | 0.0 | 0.00 | 0.00 | 0.00 | 95 | 1017.4 |
| 20260506101227 | 53 | 40 | 0.0 | 0.0 | 0.00 | 0.00 | 0.00 | 95 | 1017.3 |
| 20260506100727 | 53 | 40 | 0.0 | 2.0 | 0.00 | 0.00 | 0.00 | 95 | 1017.3 |
| 20260506095946 | 53 | 40 | 0.0 | 1.0 | 0.00 | 0.00 | 0.00 | 95 | 1017.2 |
| 20260506095428 | 53 | 40 | 0.0 | 0.0 | 0.00 | 0.00 | 0.00 | 95 | 1017.2 |
| 20260506094937 | 53 | 40 | 0.0 | 2.0 | 0.00 | 0.00 | 0.00 | 95 | 1017.0 |
| 20260506094154 | 53 | 40 | 0.0 | 0.0 | 0.00 | 0.00 | 0.00 | 95 | 1017.0 |
| 20260506093659 | 53 | 40 | 0.0 | 0.0 | 0.00 | 0.00 | 0.00 | 95 | 1017.0 |
| 20260506093140 | 53 | 40 | 0.0 | 1.0 | 0.00 | 0.00 | 0.00 | 95 | 1017.0 |
| 20260506092643 | 53 | 40 | 0.0 | 0.0 | 0.00 | 0.00 | 0.00 | 95 | 1016.9 |
| 20260506092150 | 53 | 40 | 0.0 | 3.0 | 0.00 | 0.00 | 0.00 | 95 | 1016.9 |
| 20260506091643 | 53 | 36 | 0.0 | 0.0 | 0.00 | 0.00 | 0.00 | 95 | 1016.8 |
| 20260506091129 | 53 | 36 | 0.0 | 0.0 | 0.00 | 0.00 | 0.00 | 95 | 1016.8 |
| 20260506090619 | 53 | 36 | 0.0 | 1.0 | 0.00 | 0.00 | 0.00 | 95 | 1016.7 |
| 20260506090110 | 53 | 36 | 0.0 | 4.0 | 0.00 | 0.00 | 0.00 | 95 | 1016.7 |
| 20260506085610 | 53 | 36 | 0.0 | 1.0 | 0.00 | 0.00 | 0.00 | 95 | 1016.8 |
| 20260506085116 | 53 | 36 | 0.0 | 0.0 | 0.00 | 0.00 | 0.00 | 95 | 1016.8 |
| 20260506084622 | 53 | 36 | 0.0 | 1.0 | 0.00 | 0.00 | 0.00 | 95 | 1016.8 |
| 20260506084111 | 53 | 36 | 0.0 | 0.0 | 0.00 | 0.00 | 0.00 | 95 | 1016.8 |
| 20260506083612 | 53 | 36 | 0.0 | 1.0 | 0.00 | 0.00 | 0.00 | 95 | 1016.8 |
| 20260506083121 | 53 | 36 | 0.0 | 1.0 | 0.00 | 0.00 | 0.00 | 95 | 1016.8 |
| 20260506082618 | 53 | 36 | 0.0 | 0.0 | 0.00 | 0.00 | 0.00 | 95 | 1016.9 |
| 20260506082103 | 53 | 36 | 0.0 | 0.0 | 0.00 | 0.00 | 0.00 | 95 | 1016.8 |
| 20260506081610 | 53 | 36 | 0.0 | 0.0 | 0.00 | 0.00 | 0.00 | 95 | 1016.8 |
| 20260506081055 | 53 | 36 | 0.0 | 0.0 | 0.00 | 0.00 | 0.00 | 95 | 1016.7 |
| 20260506080558 | 53 | 36 | 0.0 | 1.0 | 0.00 | 0.00 | 0.00 | 95 | 1016.7 |
| 20260506073029 | 53 | 35 | 0.0 | 0.0 | 0.00 | 0.00 | 0.00 | 95 | 1016.5 |
| 20260506072518 | 53 | 35 | 0.0 | 0.0 | 0.00 | 0.00 | 0.00 | 95 | 1016.5 |
| 20260506072016 | 53 | 35 | 0.0 | 0.0 | 0.00 | 0.00 | 0.00 | 95 | 1016.5 |
| 20260506071458 | 53 | 35 | 0.0 | 0.0 | 0.00 | 0.00 | 0.00 | 95 | 1016.4 |
| 20260506071004 | 53 | 35 | 0.0 | 2.0 | 0.00 | 0.00 | 0.00 | 95 | 1016.3 |
| 20260506070446 | 53 | 36 | 0.0 | 2.0 | 0.00 | 0.00 | 0.00 | 95 | 1016.2 |
| 20260506062345 | 53 | 35 | 0.0 | 2.0 | 0.00 | 0.00 | 0.00 | 94 | 1016.0 |
| 20260506061835 | 53 | 35 | 0.0 | 3.0 | 0.00 | 0.00 | 0.00 | 94 | 1015.9 |
| 20260506061104 | 53 | 36 | 0.0 | 3.0 | 0.00 | 0.00 | 0.00 | 94 | 1015.8 |
| 20260506060553 | 53 | 36 | 0.0 | 2.0 | 0.00 | 0.00 | 0.00 | 94 | 1015.9 |
| 20260506051253 | 53 | 35 | 0.0 | 0.0 | 0.00 | 0.00 | 0.00 | 93 | 1015.8 |
| 20260506050746 | 53 | 35 | 0.0 | 2.0 | 0.00 | 0.00 | 0.00 | 93 | 1015.7 |
| 20260506050241 | 53 | 35 | 0.0 | 2.0 | 0.00 | 0.00 | 0.00 | 93 | 1015.7 |
| 20260506044722 | 54 | 35 | 1.0 | 4.0 | 0.00 | 0.00 | 0.00 | 92 | 1015.5 |
| 20260506044215 | 54 | 36 | 1.0 | 4.0 | 0.00 | 0.00 | 0.00 | 92 | 1015.5 |
| 20260506043725 | 54 | 35 | 1.0 | 4.0 | 0.00 | 0.00 | 0.00 | 92 | 1015.5 |
| 20260506043234 | 54 | 35 | 0.0 | 2.0 | 0.00 | 0.00 | 0.00 | 92 | 1015.4 |
| 20260506042718 | 54 | 34 | 0.0 | 0.0 | 0.00 | 0.00 | 0.00 | 91 | 1015.3 |
| 20260506042221 | 55 | 34 | 0.0 | 4.0 | 0.00 | 0.00 | 0.00 | 91 | 1015.3 |
| 20260506041706 | 55 | 63 | 0.0 | 3.0 | 0.00 | 0.00 | 0.00 | 91 | 1015.1 |
| 20260506041158 | 55 | 63 | 0.0 | 2.0 | 0.00 | 0.00 | 0.00 | 91 | 1015.1 |
| 20260506040650 | 55 | 63 | 1.0 | 0.0 | 0.00 | 0.00 | 0.00 | 91 | 1015.0 |
| 20260506040142 | 55 | 63 | 0.0 | 3.0 | 0.00 | 0.00 | 0.00 | 91 | 1015.0 |
| 20260506035636 | 55 | 60 | 0.0 | 0.0 | 0.00 | 0.00 | 0.00 | 90 | 1014.9 |
| 20260506035123 | 56 | 60 | 0.0 | 2.0 | 0.00 | 0.00 | 0.00 | 90 | 1014.8 |
| 20260506034633 | 56 | 61 | 0.0 | 2.0 | 0.00 | 0.00 | 0.00 | 89 | 1014.7 |
| 20260506034116 | 56 | 61 | 1.0 | 3.0 | 0.00 | 0.00 | 0.00 | 89 | 1014.6 |
| 20260506033558 | 56 | 61 | 1.0 | 3.0 | 0.00 | 0.00 | 0.00 | 88 | 1014.6 |
| 20260506032831 | 57 | 350 | 1.0 | 3.0 | 0.00 | 0.00 | 0.00 | 87 | 1014.5 |
| 20260506032321 | 57 | 334 | 1.0 | 3.0 | 0.00 | 0.00 | 0.00 | 87 | 1014.4 |
| 20260506031804 | 57 | 334 | 0.0 | 3.0 | 0.00 | 0.00 | 0.00 | 87 | 1014.4 |
| 20260506031300 | 58 | 334 | 0.0 | 4.0 | 0.00 | 0.00 | 0.00 | 86 | 1014.3 |
| 20260506030807 | 58 | 238 | 0.0 | 4.0 | 0.00 | 0.00 | 0.00 | 86 | 1014.2 |
| 20260506030257 | 58 | 238 | 0.0 | 4.0 | 0.00 | 0.00 | 0.00 | 85 | 1014.2 |
| 20260506025739 | 59 | 236 | 0.0 | 4.0 | 0.00 | 0.00 | 0.00 | 85 | 1014.2 |
| 20260506025234 | 59 | 242 | 0.0 | 2.0 | 0.00 | 0.00 | 0.00 | 84 | 1014.1 |
| 20260506024448 | 60 | 242 | 0.0 | 1.0 | 0.00 | 0.00 | 0.00 | 83 | 1014.0 |
| 20260506023949 | 61 | 242 | 0.0 | 0.0 | 0.00 | 0.00 | 0.00 | 82 | 1014.0 |
| 20260506023443 | 61 | 242 | 0.0 | 0.0 | 0.00 | 0.00 | 0.00 | 82 | 1014.0 |
| 20260506022925 | 61 | 242 | 0.0 | 0.0 | 0.00 | 0.00 | 0.00 | 81 | 1013.9 |
| 20260506022423 | 62 | 242 | 0.0 | 0.0 | 0.00 | 0.00 | 0.00 | 81 | 1013.9 |
| 20260506021903 | 62 | 242 | 0.0 | 0.0 | 0.00 | 0.00 | 0.00 | 80 | 1013.9 |
| 20260506021401 | 62 | 242 | 0.0 | 0.0 | 0.00 | 0.00 | 0.00 | 80 | 1013.9 |
| 20260506020902 | 62 | 242 | 0.0 | 3.0 | 0.00 | 0.00 | 0.00 | 79 | 1014.0 |
| 20260506020401 | 63 | 240 | 0.0 | 2.0 | 0.00 | 0.00 | 0.00 | 78 | 1014.0 |
| 20260506015909 | 63 | 240 | 0.0 | 0.0 | 0.00 | 0.00 | 0.00 | 77 | 1013.9 |
| 20260506015417 | 63 | 240 | 0.0 | 0.0 | 0.00 | 0.00 | 0.00 | 77 | 1013.9 |
| 20260506014901 | 63 | 240 | 0.0 | 1.0 | 0.00 | 0.00 | 0.00 | 76 | 1013.9 |
| 20260506014353 | 64 | 240 | 0.0 | 3.0 | 0.00 | 0.00 | 0.00 | 75 | 1013.8 |
| 20260506013604 | 64 | 240 | 0.0 | 2.0 | 0.00 | 0.00 | 0.00 | 75 | 1013.8 |
| 20260506012841 | 64 | 240 | 0.0 | 0.0 | 0.00 | 0.00 | 0.00 | 75 | 1013.8 |
| 20260506012330 | 64 | 240 | 0.0 | 5.0 | 0.00 | 0.00 | 0.00 | 75 | 1013.9 |
| 20260506011836 | 64 | 240 | 0.0 | 5.0 | 0.00 | 0.00 | 0.00 | 75 | 1013.9 |
| 20260506011321 | 64 | 240 | 0.0 | 4.0 | 0.00 | 0.00 | 0.00 | 74 | 1013.9 |
| 20260506010816 | 64 | 240 | 0.0 | 4.0 | 0.00 | 0.00 | 0.00 | 76 | 1013.9 |
| 20260506010312 | 64 | 240 | 0.0 | 2.0 | 0.00 | 0.00 | 0.00 | 75 | 1013.9 |
| 20260506005800 | 64 | 240 | 0.0 | 2.0 | 0.00 | 0.00 | 0.00 | 75 | 1014.0 |
| 20260506005242 | 64 | 240 | 0.0 | 4.0 | 0.00 | 0.00 | 0.00 | 74 | 1014.0 |
| 20260506004729 | 64 | 232 | 0.0 | 2.0 | 0.00 | 0.00 | 0.00 | 75 | 1014.0 |
| 20260506004228 | 63 | 232 | 0.0 | 7.0 | 0.00 | 0.00 | 0.00 | 77 | 1014.1 |
| 20260506003713 | 63 | 233 | 1.0 | 7.0 | 0.00 | 0.00 | 0.00 | 78 | 1014.1 |